Regional Weather Roundup
Issued by NWS San Angelo, TX

Home | Current Version | Previous Version | Text Only | Print | Product List | Glossary On
Versions: 1 2 3 4 5 6 7 8 9 10 11 12 13 14 15 16 17 18 19 20 21 22 23 24 25 26 27 28 29 30 31 32 33 34 35 36 37 38 39 40 41 42 43 44 45 46 47 48 49 50
000
ASUS44 KSJT 101510
RWRSJT
WEST CENTRAL TEXAS REGIONAL WEATHER ROUNDUP
NATIONAL WEATHER SERVICE SAN ANGELO TX
900 AM CST SAT DEC 10 2016

NOTE: "FAIR" INDICATES FEW OR NO CLOUDS BELOW 12,000 FEET WITH NO
SIGNIFICANT WEATHER AND/OR OBSTRUCTIONS TO VISIBILITY.

TXZ049-054-064>066-071>073-076>078-098-099-113-114-127-128-139-140-
154-155-168>170-101600
...LOCATIONS ACROSS WEST CENTRAL TEXAS...

CITY           SKY/WX    TMP DP  RH WIND       PRES   REMARKS
SAN ANGELO     SUNNY     41  30  65 S5        30.32S WCI  38
ABILENE        MOSUNNY   38  28  67 S10       30.32S WCI  31
DYESS AFB      SUNNY     38  25  59 S12       30.29F WCI  31
JUNCTION       CLOUDY    39  28  64 CALM      30.37S
SWEETWATER     SUNNY     38  31  75 S20       30.28S WCI  28
BROWNWOOD      CLOUDY    37  23  56 S10       30.39S WCI  30
COLEMAN        CLOUDY    37  27  66 S8        30.36R WCI  31
SONORA         CLOUDY    41  28  60 S9        30.39R WCI  35
OZONA          CLOUDY    34  30  86 MISG      30.35S
BRADY          NOT AVBL
$$

TEXAS PANHANDLE/OKLAHOMA PANHANDLE

CITY           SKY/WX    TMP DP  RH WIND       PRES   REMARKS
AMARILLO       CLOUDY    28  27  96 SW12      30.11F WCI  18
BORGER         CLOUDY    29  26  89 S10       30.11F WCI  20
CANADIAN       CLOUDY    28  24  84 S10       30.16F WCI  19
DALHART        CLOUDY    26  24  92 SW7       30.06F WCI  18
DUMAS          CLOUDY    29  27  89 SW9       30.06S WCI  21
GUYMON         NOT AVBL
HEREFORD       CLOUDY    34  32  91 SW14      30.12F WCI  25
PAMPA          CLOUDY    27  25  92 S12       30.11F WCI  17
PERRYTON       CLOUDY    25  22  89 SE3       30.12S
$$

SOUTHERN PANHANDLE/SOUTH PLAINS/ROLLING PLAINS

CITY           SKY/WX    TMP DP  RH WIND       PRES   REMARKS
LUBBOCK        CLOUDY    33  30  88 SW10      30.18F WCI  25
SNYDER         SUNNY     32  29  87 S13       30.26S WCI  23
CHILDRESS      CLOUDY    30  24  78 S13       30.24F WCI  20
SEMINOLE       CLOUDY    31  31  99 CALM      30.23S
$$

PERMIAN BASIN

CITY           SKY/WX    TMP DP  RH WIND       PRES   REMARKS
MIDLAND        CLOUDY    35  31  85 S10       30.24S WCI  27
ODESSA         CLOUDY    35  31  85 SW7       30.25R WCI  29
WINK           CLOUDY    31  31 100 SE7       30.24S WCI  24
$$

FAR WEST/SOUTHWEST MOUNTAINS/TRANS PECOS

CITY           SKY/WX    TMP DP  RH WIND       PRES   REMARKS
ALPINE         CLOUDY    46  39  78 SW14      30.33R WCI  39
DRYDEN           N/A     33  33 100 CALM      30.33R
EL PASO        MOSUNNY   35  26  69 N5        30.27S WCI  31
FORT STOCKTON  CLOUDY    38  36  92 S6        30.25R WCI  33
GUADALUPE PASS NOT AVBL
MARFA          FOG       32  31  96 CALM      30.32R VSB<1/4
PECOS          CLOUDY    32  31  96 CALM      30.26S
$$

DALLAS/FORT WORTH METROPLEX

CITY           SKY/WX    TMP DP  RH WIND       PRES   REMARKS
DFW AIRPORT    CLOUDY    40  24  53 S15       30.44S WCI  32
FTW MEACHAM    CLOUDY    39  25  57 SE13      30.44S WCI  31
DAL-EXECUTIVE  CLOUDY    38  27  64 SE12      30.45S WCI  30
GRAND PRAIRIE  NOT AVBL
ADDISON        CLOUDY    39  27  60 MISG      30.46S
MESQUITE       CLOUDY    37  27  65 SE9       30.48S WCI  31
LANCASTER      CLOUDY    39  27  62 SE8       30.49R WCI  33
$$

NORTH CENTRAL TEXAS

CITY           SKY/WX    TMP DP  RH WIND       PRES   REMARKS
SHRMAN/DENISON CLOUDY    39  28  63 SE9G17    30.47R WCI  33
GAINESVILLE    CLOUDY    38  25  60 SE8       30.45R WCI  32
BRIDGEPORT     CLOUDY    37  27  67 SE8       30.44R WCI  31
DENTON         CLOUDY    39  26  59 SE10      30.44R WCI  32
WAXAHACHIE     CLOUDY    37  28  70 SE7       30.47S WCI  32
GRANBURY       CLOUDY    40  29  65 SE10      30.44S WCI  33
$$

WESTERN NORTH TEXAS

CITY           SKY/WX    TMP DP  RH WIND       PRES   REMARKS
WICHITA FALLS  CLOUDY    40  23  50 S13       30.36S WCI  32
VERNON         SUNNY     35  23  61 S13       30.32F WCI  26
BRECKENRIDGE   CLOUDY    38  24  57 S12       30.36S WCI  31
COMANCHE       CLOUDY    38  27  64 S8        30.39S WCI  32
$$

CENTRAL AND SOUTH CENTRAL TEXAS

CITY           SKY/WX    TMP DP  RH WIND       PRES   REMARKS
AUSTIN/BERGSTM CLOUDY    43  31  62 SE5       30.46R
WACO           CLOUDY    40  27  59 SE10      30.47R WCI  33
HILLSBORO      CLOUDY    38  31  73 SE12      30.46S WCI  31
TEMPLE         CLOUDY    41  28  60 SE9       30.47R WCI  35
KILLEEN-GRAY   CLOUDY    39  28  65 SE12      30.43R WCI  32
FORT HOOD      CLOUDY    41  28  59 SE8       30.41S WCI  35
GEORGETOWN     CLOUDY    41  27  56 SE5       30.45S WCI  38
LAGO VISTA     CLOUDY    41  31  67 CALM      30.44R
SAN MARCOS     CLOUDY    41  32  70 CALM      30.47R
NEW BRAUNFELS  CLOUDY    44  31  60 CALM      30.45R
RANDOLPH AFB   CLOUDY    43  30  59 NE3       30.45R
SAN ANTONIO    CLOUDY    43  29  57 CALM      30.45R
STINSON        CLOUDY    46  28  49 E3        30.44S
PLEASANTON     NOT AVBL
LA GRANGE      CLOUDY    44  33  64 CALM      30.45R
GIDDINGS       CLOUDY    42  30  62 E3        30.50R
$$

EAST TEXAS

CITY           SKY/WX    TMP DP  RH WIND       PRES   REMARKS
PARIS          CLOUDY    37  25  60 SE14      30.50R WCI  29
CLARKSVILLE    NOT AVBL
TYLER          CLOUDY    38  24  57 SE12      30.50S WCI  30
LONGVIEW       PTSUNNY   35  27  72 SE9       30.53S WCI  28
PALESTINE      CLOUDY    37  30  75 E7        30.52S WCI  32
NACOGDOCHES    CLOUDY    36  27  69 SE8       30.51S WCI  29
$$

TEXAS HILL COUNTRY AND EDWARDS PLATEAU

CITY           SKY/WX    TMP DP  RH WIND       PRES   REMARKS
LLANO          CLOUDY   N/A N/A N/A SE3       30.45R
HORSESHOE BAY  CLOUDY    42  28  59 S7        30.43S WCI  37
KERRVILLE      CLOUDY    38  30  70 SE6       30.41S WCI  34
FREDERICKSBRG  CLOUDY    40  25  56 SE5       30.40S WCI  36
ROCKSPRINGS    CLOUDY    39  30  70 S10       30.38R WCI  32
HONDO          CLOUDY    45  31  58 E6        30.44R
UVALDE         CLOUDY    42  30  61 CALM      30.44S
DEL RIO        CLOUDY    44  32  62 SE12      30.40R WCI  38
$$

SOUTHEAST TEXAS

CITY           SKY/WX    TMP DP  RH WIND       PRES   REMARKS
COLLEGE STN    CLOUDY    41  29  62 E7        30.49R WCI  36
CALDWELL       NOT AVBL
CROCKETT       CLOUDY    36  28  75 E5        30.55S WCI  32
BRENHAM        CLOUDY    44  29  57 E6        30.48S
HUNTSVILLE     CLOUDY    40  25  55 E5        30.50R WCI  37
CONROE         CLOUDY    38  28  67 E7        30.51R WCI  33
HOUSTON BUSH   PTSUNNY   41  29  62 E9        30.51R WCI  35
HOUSTON HOBBY  MOSUNNY   46  34  62 NE9       30.49S
PERLAND        PTSUNNY   47  36  65 NE13      30.50R
WHARTON        CLOUDY    45  36  70 NE7       30.47R
$$

THE UPPER TEXAS COAST

CITY           SKY/WX    TMP DP  RH WIND       PRES   REMARKS
ORANGE         SUNNY     40  26  58 E10       30.56R WCI  33
PORT ARTHUR    SUNNY     42  29  59 E9        30.53R WCI  37
GALVESTON      PTSUNNY   50  44  80 NE12      30.49S
ANGLETON       CLOUDY    47  39  74 NE12      30.48R
BAY CITY       CLOUDY    47  40  76 NE9       30.46R
$$

TEXAS COASTAL BEND, RIO GRANDE PLAINS DEEP SOUTH TEXAS

CITY           SKY/WX    TMP DP  RH WIND       PRES   REMARKS
VICTORIA       CLOUDY    47  35  63 NE9       30.45R
BEEVILLE       CLOUDY    48  37  65 NE6       30.43R
ROCKPORT       CLOUDY    51  41  68 NE12      30.41S
PORT ARANSAS   CLOUDY    53  47  81 NE9       30.40S
PORT LAVACA    CLOUDY    47  41  80 NE12      30.44R
CORPUS CHRISTI CLOUDY    50  40  68 NE15      30.40F
KINGSVILLE NAS CLOUDY    49  38  65 N9        30.41S
COTULLA        CLOUDY    46  37  71 E5        30.45R
LAREDO         CLOUDY    45  38  76 NE5       30.45R
BROWNSVILLE    CLOUDY    50  38  63 NW12      30.39R
PORT ISABEL    CLOUDY    49  40  71 NW13      30.38R
HEBBRONVILLE   CLOUDY    45  32  60 N7        30.42R
MCALLEN        CLOUDY    52  36  54 NW8       30.42R
WESLACO        CLOUDY    49  34  57 NW10      30.40S
FALFURRIAS     CLOUDY    49  34  54 NW6       30.42R
EDINBURG       CLOUDY    52  34  50 NW7       30.41S
$$




USA.gov is the U.S. government's official web portal to all federal, state and local government web resources and services.